Weather History for Kingman, AZ

Change the Weather History Date:

Wednesday, March 20, 2013

  Actual Average Record
Temperature  
Mean Temperature 60 °F 52 °F  
Max Temperature 73 °F 67 °F 89 °F (2004)
Min Temperature 47 °F 38 °F 25 °F (1937)
Degree Days  
Heating Degree Days 5 13  
Month to date heating degree days 185 290  
Since 1 July heating degree days 2652 2703  
Cooling Degree Days 0 0  
Month to date cooling degree days 6 0  
Year to date cooling degree days 6 0  
Growing Degree Days 12 (Base 50)    
Moisture  
Dew Point 25 °F    
Average Humidity 26    
Maximum Humidity 37    
Minimum Humidity 15    
Precipitation  
Precipitation 0.00 in 0.02 in 0.85 in (1918)
Month to date precipitation 0.14 0.54  
Year to date precipitation 1.13 2.70  
Sea Level Pressure  
Sea Level Pressure 29.83 in    
Wind  
Wind Speed 13 mph (South)    
Max Wind Speed 30 mph    
Max Gust Speed 40 mph    
Visibility 10 miles    
Events      
T = Trace of Precipitation, MM = Missing Value Source: NWS Daily Summary

Daily Weather History Graph

Daily Weather History Graph

Search for Another Location

Airport:

Trip Planner

Search our weather history database for the weather conditions in past years. The results will help you decide how hot, cold, wet, or windy it might be!

Date:

Astronomy

Mar. 20, 2013 Rise Set
Actual Time 6:38 AM MST 6:47 PM MST
Civil Twilight 6:13 AM MST 7:13 PM MST
Nautical Twilight 5:44 AM MST 7:42 PM MST
Astronomical Twilight 5:14 AM MST 8:12 PM MST
Moon 12:38 PM MST (3/20) 2:09 AM MST (3/20)
Length of Visible Light 12h 59m
Length of Day
12h 08m
First Quarter, 60% of the Moon is Illuminated
Mar 20
First Quarter
Mar 27
Full
Apr 2
Last Quarter
Apr 10
New
Apr 18
First Quarter

Hourly Weather History & Observations

Time (MST) Temp. Dew Point Humidity Pressure Visibility Wind Dir Wind Speed Gust Speed Precip Events Conditions
12:51 AM 50.0 °F 19.9 °F 31% 29.94 in 10.0 mi East 4.6 mph - N/A   Clear
1:51 AM 50.0 °F 21.0 °F 32% 29.94 in 10.0 mi South 8.1 mph - N/A   Clear
2:51 AM 46.9 °F 21.0 °F 36% 29.91 in 10.0 mi Calm Calm - N/A   Clear
3:51 AM 52.0 °F 21.0 °F 30% 29.88 in 10.0 mi ESE 6.9 mph - N/A   Clear
4:51 AM 55.0 °F 19.9 °F 25% 29.86 in 10.0 mi SE 8.1 mph - N/A   Clear
5:51 AM 52.0 °F 21.9 °F 31% 29.88 in 10.0 mi SE 3.5 mph - N/A   Clear
6:51 AM 53.1 °F 21.9 °F 30% 29.89 in 10.0 mi South 9.2 mph - N/A   Clear
7:51 AM 57.0 °F 23.0 °F 27% 29.91 in 10.0 mi SSW 6.9 mph - N/A   Clear
8:51 AM 66.0 °F 21.9 °F 19% 29.91 in 10.0 mi South 9.2 mph - N/A   Clear
9:51 AM 68.0 °F 19.9 °F 16% 29.89 in 10.0 mi SSW 18.4 mph 23.0 mph N/A   Clear
10:51 AM 69.1 °F 24.1 °F 18% 29.88 in 10.0 mi SSW 19.6 mph - N/A   Clear
11:51 AM 71.1 °F 23.0 °F 16% 29.86 in 10.0 mi SSW 24.2 mph - N/A   Clear
12:51 PM 72.0 °F 27.0 °F 19% 29.84 in 10.0 mi SSW 29.9 mph 34.5 mph N/A   Clear
1:51 PM 70.0 °F 27.0 °F 20% 29.84 in 10.0 mi SSW 20.7 mph 29.9 mph N/A   Clear
2:51 PM 72.0 °F 27.0 °F 19% 29.81 in 10.0 mi SSW 23.0 mph 31.1 mph N/A   Clear
3:51 PM 72.0 °F 28.0 °F 20% 29.80 in 10.0 mi SSW 21.9 mph 27.6 mph N/A   Clear
4:51 PM 70.0 °F 28.9 °F 22% 29.78 in 10.0 mi SW 17.3 mph 24.2 mph N/A   Clear
5:51 PM 69.1 °F 28.9 °F 22% 29.78 in 10.0 mi SSW 13.8 mph - N/A   Clear
6:51 PM 66.0 °F 30.0 °F 26% 29.77 in 10.0 mi South 8.1 mph - N/A   Clear
7:51 PM 64.9 °F 30.0 °F 27% 29.75 in 10.0 mi South 10.4 mph - N/A   Clear
8:51 PM 64.9 °F 30.0 °F 27% 29.73 in 10.0 mi SSW 11.5 mph 18.4 mph N/A   Clear
9:51 PM 64.9 °F 30.0 °F 27% 29.72 in 10.0 mi South 10.4 mph - N/A   Clear
10:51 PM 62.1 °F 28.9 °F 29% 29.70 in 10.0 mi SE 8.1 mph - N/A   Clear
11:51 PM 62.1 °F 30.9 °F 31% 29.67 in 10.0 mi SSW 19.6 mph - N/A   Clear